SCP
0 0 0 0 0 0 0 0 0 0 0 0 0 0 0 0 -0 0 0 0 -0 -0 -0 -0 -0 -0 -0 -0 -0 -0 -0 -0 -0 -0 -0 -0 -0 -0 -0 -0 -0 -0 -0 -0 -0 -0 -0 -0 -0
0 0 0 0 0 0 0 0 0 0 0 0 0 0 0 -0 0 0 -0 0 -0 -0 -0 -0 -0 -0 -0 -0 -0 -0 -0 -0 -0 -0 -0 -0 -0 -0 -0 -0 -0 -0 -0 -0 -0 -0 -0 -0 -0
0 0 0 0 0 0 0 0 0 0 0 0 0 0 0 0 0 0 0 -0 -0 -0 -0 -0 -0 -0 -0 -0 -0 -0 -0 -0 -0 -0 -0 -0 -0 -0 -0 -0 -0 -0 -0 -0 -0 -0 -0 -0 -0
0 0 0 0 0 0 0 0 0 0 0 0 0 0 0 0 0 0 0 -0 -0 -0 -0 -0 -0 -0 -0 -0 -0 -0 -0 -0 -0 -0 -0 -0 -0 -0 -0 -0 -0 -0 -0 0 0 0 0 0 0
0 0 0 0 0 0 0 0 0 0 0 0 0 0 0 0 0 0 0 -0 -0 -0 0 -0 0 -0 -0 -0 -0 -0 -0 -0 -0 -0 -0 -0 -0 -0 -0 0 0 0 0 0 0 0 0 0 0
0 0 0 0 0 0 0 0 0 0 0 0 0 0 0 0 0 0 0 0 -0 -0 0 0 0 0 -0 -0 -0 -0 -0 -0 -0 -0 -0 -0 -0 -0 0 0 0 0 0 0 0 0 0 0 0
0 0 0 0 0 0 0 0 0 0 0 0 0 0 0 0 0 0 0 0 0 0 0 0 0 0 0 0 0 0 -0 -0 -0 0 0 0 0 0 0 0 0 0 0 0 0 0 0 0 0
0 0 0 0 0 0 0 0 0 0 0 0 0 0 0 0 0 0 0 0 0 0 0 0 0 0 0 0 0 0 0 0 0 0 0 0 0 0 0 0 0 0 0 0 0 0 0 0 0
0 0 0 0 0 0 0 0 0 0 0 0 0 0 0 0 0 0 0 0 0 0 0 0 0 0 0 0 0 0 0 0 0 0 0 0 0 0 0 0 0 0 0 0 0 0 0 0 0
0 0 0 0 0 0 0 0 0 0 0 0 0 0 0 0 0 0 0 0 0 0 0 0 0 0 0 0 0 0 0 0 0 0 0 0 0 0 0 0 0 0 0 0 0 0 0 0 0
0 0 0 0 0 0 0 0 0 0 0 0 0 0 0 0 0 0 0 0 0 0 0 0 0 0 0 0 0 0 0 0 0 0 0 0 0 0 0 0 0 0 0 0 0 0 0 0 0
0 0 0 0 0 0 0 0 0 0 0 0 0 0 0 0 0 0 0 0 0 0 0 0 0 0 0 0 0 0 0 0 0 0 0 0 0 0 0 0 0 0 0 0 0 0 0 0 0
0 0 0 0 0 0 0 0 0 0 0 0 0 0 0 0 0 0 0 0 0 0 0 0 0 0 0 0 0 0 0 0 0 0 0 0 0 0 0 0 0 0 0 0 0 0 0 0 0
0 0 -0 -0 0 0 0 0 0 0 0 0 0 0 0 0 0 0 0 0 0 0 0 0 0 0 0 0 0 0 0 0 0 0 0 0 0 0 0 0 0 0 0 0 0 0 0 0 0
0 0 0 0 0 0 0 0 -0 -0 0 0 0 0 0 0 0 0 0 0 0 0 0 0 0 0 0 0 0 0 0 0 0 0 0 0 0 0 0 0 0 0 0 0 0 0 0 0 0
0 0 0 0 0 0 0 0 0 0 0 0 0 0 0 0 0 0 0 0 0 0 0 0 0 0 0 0 0 0 0 0 0 0 0 0 0 0 0 0 0 0 0 0 0 0 0 0 0
0 0 0 0 0 0 0 0 0 0 0 0 0 0 0 0 0 0 0 0 0 0 0 0 0 0 0 0 0 0 0 0 0 0 0 0 0 0 0 0 0 0 0 0 0 0 0 0 0
0 0 0 0 0 0 0 0 0 0 0 0 -0 -0 0 0 0 0 0 0 0 0 0 0 0 0 0 0 0 0 0 0 0 0 0 0 0 0 0 0 0 0 0 0 0 0 0 0 0
0 0 0 0 0 0 0 0 0 0 0 0 0 0 0 0 0 0 0 0 0 0 0 0 0 0 0 0 0 0 0 0 0 0 0 0 0 0 0 0 0 0 0 0 0 0 0 0 0
0 0 0 0 0 0 0 0 0 0 0 0 0 0 0 0 0 0 0 0 0 0 0 0 0 0 0 0 0 0 0 0 0 0 0 0 0 0 0 0 0 0 0 0 0 0 0 0 0
0 0 0 -0 -0 -0 0 -0 0 0 0 0 0 0 0 0 0 0 0 0 0 0 0 0 0 0 0 0 0 0 0 0 0 0 0 0 0 0 0 0 0 0 0 0 0 0 0 0 0
-0 0 0 -0 -0 -0 -0 -0 0 0 0 0 0 0 0 0 0 0 0 0 0 0 0 0 0 0 0 0 0 0 0 0 0 0 0 0 0 0 0 0 0 0 0 0 0 0 0 0 0
0 -0 -0 -0 -0 -0 0 -0 0 0 0 0 0 0 0 0 0 0 0 0 0 0 0 0 0 0 0 1 0 0 0 0 0 0 0 0 0 0 0 0 0 0 0 0 0 0 0 0 0
0 -0 -0 0 -0 -0 0 0 0 0 0 0 0 0 0 0 0 0 0 0 0 0 0 0 0 0 0 1 0 0 0 0 0 0 0 0 0 0 0 0 0 0 0 0 0 0 0 0 0
0 0 -0 -0 -0 -0 0 0 0 0 0 0 0 0 0 0 0 0 0 0 0 0 0 0 0 0 0 0 0 0 0 0 0 0 0 0 0 0 0 0 0 0 0 0 0 0 0 0 0
-0 -0 -0 -0 -0 -0 0 0 0 0 0 0 0 0 0 0 0 0 0 0 0 0 0 0 0 0 0 0 0 0 0 0 0 0 0 0 0 0 0 0 0 0 0 0 0 0 0 0 0
0 0 0 0 0 0 -0 0 0 0 0 0 0 0 0 0 0 0 0 0 0 0 0 0 0 0 0 0 0 0 0 0 0 0 0 0 0 0 0 0 0 0 0 0 0 0 0 0 0
0 0 0 0 0 0 0 0 0 0 0 0 -0 -0 -0 -0 0 0 0 0 0 0 0 0 0 0 0 0 0 0 0 0 0 0 0 0 0 0 0 0 0 0 0 0 0 0 0 0 0
0 0 0 0 0 0 0 0 0 0 0 -0 -0 -0 -0 0 -0 -0 0 0 -0 -0 0 0 0 0 0 0 0 0 0 0 0 0 0 0 0 0 0 0 0 0 0 0 0 0 0 0 0
0 0 0 0 0 0 0 0 -0 0 0 0 0 -0 -0 -0 -0 -0 -0 0 0 0 -0 -0 0 0 0 0 0 0 0 0 0 0 0 0 0 0 0 0 0 0 0 0 0 0 0 0 0
Wind_Speed_500mb
10 5 7 6 7 6 9 7 8 13 7 2 4 10 11 7 10 2 9 37 49 65 65 64 58 53 51 47 44 39 36 34 30 24 18 12 10 9 9 12 14 15 15 21 19 20 20 20 21
7 3 9 4 9 15 12 9 19 17 9 8 10 13 11 14 9 3 23 44 50 65 64 66 61 53 52 49 44 40 36 35 31 25 18 14 12 12 14 20 23 26 26 26 25 22 19 18 18
3 11 6 6 8 20 11 9 8 9 11 8 7 9 6 3 11 6 21 46 58 63 62 63 62 55 52 49 45 41 38 35 30 23 18 16 15 16 23 25 27 28 30 30 28 25 20 16 15
8 4 2 10 26 14 13 9 4 19 10 10 7 12 7 13 4 13 28 47 59 62 59 62 61 57 53 50 47 44 41 36 30 23 18 15 16 21 26 27 26 26 25 25 24 22 21 20 17
9 3 8 12 27 13 13 18 19 21 15 11 7 10 8 11 14 22 35 46 59 59 56 63 61 56 53 50 49 46 42 36 31 24 19 17 18 22 26 26 25 23 22 21 20 19 16 15 13
4 4 7 20 27 10 12 16 21 24 31 26 10 20 10 12 15 30 38 47 53 62 60 66 62 56 53 52 50 46 43 39 33 26 21 19 20 24 25 24 22 21 20 20 18 17 16 14 12
2 5 4 9 14 14 8 14 12 18 26 29 14 10 6 14 21 32 40 48 52 64 67 66 62 56 54 52 51 48 43 41 36 28 23 20 23 25 24 22 19 18 17 16 15 14 13 11 9
4 2 5 7 7 8 10 19 11 14 15 16 8 10 9 13 28 34 41 47 52 66 69 68 60 59 57 55 52 50 46 42 38 30 26 24 25 26 24 23 20 18 16 14 13 13 9 6 8
5 8 7 6 4 5 13 22 20 18 15 16 11 11 10 11 33 38 44 46 47 61 69 70 61 60 58 57 58 53 48 44 40 33 31 30 29 29 27 25 23 21 19 16 14 11 3 6 13
3 7 6 2 10 15 30 21 29 20 30 20 17 20 21 15 37 46 54 56 55 57 63 70 59 59 61 59 60 56 53 50 47 41 37 36 33 32 31 29 26 23 19 17 14 10 5 11 19
7 6 4 10 20 25 33 36 14 18 22 13 15 20 21 20 35 46 54 55 55 52 64 70 64 68 60 67 65 61 59 56 54 47 43 40 38 36 35 33 29 25 22 20 16 12 11 17 22
8 10 9 14 16 24 24 32 28 32 45 36 29 32 28 26 36 45 47 47 54 54 59 71 64 72 64 69 70 68 66 63 58 55 49 45 42 40 38 35 31 28 28 26 20 17 19 24 26
14 10 6 17 40 37 28 31 32 51 48 44 38 42 35 31 35 42 40 39 46 59 60 67 74 75 73 66 73 72 70 68 64 57 53 49 46 43 40 38 35 32 31 30 25 23 25 28 28
2 6 15 18 30 26 20 27 4 26 29 31 28 30 25 27 29 33 44 43 50 55 65 66 75 81 78 76 74 75 75 70 68 62 57 53 49 46 44 43 39 35 32 33 29 26 27 30 30
5 9 12 8 5 8 13 19 11 9 23 36 34 33 37 32 28 36 38 52 48 50 56 69 73 81 83 78 77 77 76 73 71 67 61 57 52 50 48 44 42 37 33 37 34 29 29 30 28
7 1 4 13 23 7 16 26 11 12 49 53 46 41 45 43 42 34 38 43 48 51 61 61 71 79 82 81 82 79 79 77 72 67 63 60 57 55 51 48 44 39 32 30 30 30 30 32 27
16 7 19 18 32 17 16 33 25 54 53 60 50 52 49 54 48 46 42 45 52 55 60 67 69 72 81 84 84 82 79 77 73 68 67 64 60 57 53 49 45 40 37 34 35 33 32 31 28
17 8 13 21 20 32 33 32 33 53 49 51 49 43 44 44 43 41 40 35 41 50 54 62 71 71 74 75 81 80 81 78 75 74 73 65 63 58 56 52 50 46 43 46 41 36 33 31 28
9 14 21 21 15 33 22 34 38 54 40 49 50 55 56 52 52 44 37 30 31 37 50 66 73 77 79 80 87 90 88 84 76 74 75 70 67 61 58 55 56 56 53 46 41 37 35 33 29
14 13 18 23 34 26 30 34 27 49 46 51 57 62 65 65 62 59 53 43 30 31 37 55 73 85 83 87 90 90 83 86 75 75 80 77 70 72 65 63 62 57 54 48 43 39 37 36 32
12 22 24 23 31 23 26 8 20 21 49 54 62 59 63 67 69 70 67 61 48 34 36 41 58 76 88 89 90 95 92 94 85 86 88 81 79 79 71 69 63 59 52 48 42 39 38 37 34
16 30 30 31 24 14 19 9 16 28 36 51 62 67 71 73 70 74 80 75 65 54 40 41 51 63 76 89 100 100 103 101 97 88 86 82 85 83 78 71 75 60 57 50 45 40 39 38 37
10 41 31 33 23 15 14 7 18 29 39 50 62 69 70 69 71 70 76 76 72 68 56 44 41 50 66 82 100 104 104 105 98 92 93 94 92 84 81 70 79 62 57 55 46 43 42 41 39
38 23 7 5 5 6 4 12 24 18 28 39 57 66 68 72 68 67 68 75 79 78 71 54 39 42 50 72 90 100 105 104 104 98 97 100 96 89 75 77 74 67 63 55 49 45 43 41 39
36 20 8 4 3 7 2 14 7 15 24 30 38 52 59 61 68 72 76 88 89 85 82 72 57 41 40 54 77 89 101 105 105 103 98 94 96 98 84 87 73 72 68 57 54 49 45 43 40
18 12 6 9 9 21 26 12 9 13 28 35 40 47 57 64 66 72 72 79 90 85 79 77 69 56 37 43 57 72 85 94 102 103 99 98 96 93 84 94 80 75 70 63 55 53 47 44 40
9 8 9 7 6 8 8 8 15 15 31 50 59 60 60 63 69 68 76 88 89 94 79 73 72 61 46 37 41 55 72 87 97 97 97 95 95 96 88 85 85 75 70 62 59 54 46 44 40
11 13 1 3 8 10 10 22 16 22 34 39 52 55 55 57 59 65 69 74 87 91 92 74 66 62 52 40 30 38 63 75 83 90 93 92 96 99 94 90 88 75 69 65 61 56 49 45 39
7 7 7 5 6 7 11 8 5 4 23 38 51 51 48 51 55 57 62 69 73 84 93 92 77 67 57 46 35 35 47 61 71 80 86 88 87 98 96 99 91 78 67 63 55 54 48 43 38
7 4 5 4 4 9 13 18 20 19 53 67 48 50 46 45 46 51 55 64 77 85 89 94 93 74 61 54 43 32 37 48 60 68 76 82 78 89 90 88 80 79 65 56 57 54 48 42 38
Wind_Direction_500mb
329 310 160 142 233 256 250 241 290 248 261 231 170 211 234 308 199 358 187 174 173 175 175 174 176 176 175 175 173 174 172 168 163 159 154 153 156 159 157 145 139 139 135 130 134 126 127 132 141
334 151 152 173 235 248 247 251 249 285 294 315 227 249 251 224 224 258 160 170 178 176 175 176 179 178 177 177 177 178 176 172 166 163 162 159 155 155 144 131 124 117 114 119 123 127 131 140 147
7 163 207 222 227 240 261 212 312 337 323 236 253 248 257 238 216 211 182 172 170 176 176 178 178 180 178 179 179 180 179 175 170 170 168 164 159 149 138 132 126 119 113 112 114 117 121 134 147
119 125 120 242 237 238 242 280 331 311 323 204 291 257 261 228 207 208 182 177 172 175 176 181 179 182 181 181 181 182 181 178 177 178 174 170 160 150 142 136 127 121 118 117 116 115 111 107 112
135 133 220 238 256 268 270 291 296 293 306 295 255 269 273 254 232 190 180 182 174 174 176 181 182 186 183 183 184 185 184 183 184 184 182 178 169 157 148 140 134 130 125 121 118 113 110 108 104
87 127 222 240 250 275 289 295 288 276 284 270 258 257 263 263 212 187 182 182 176 179 178 183 186 187 186 187 189 190 190 187 189 190 188 182 174 164 158 150 145 140 134 130 123 116 108 99 92
114 194 224 281 288 293 305 331 295 322 298 276 257 258 254 237 204 183 181 180 180 183 184 184 186 188 190 192 194 194 194 191 192 193 191 186 181 175 171 163 159 153 148 143 140 131 116 97 74
121 181 187 225 279 294 10 345 330 320 326 300 239 252 252 215 201 185 180 181 186 189 189 189 187 190 192 195 198 199 199 197 197 195 193 191 188 186 181 178 175 172 170 167 162 148 125 68 12
160 209 210 257 214 26 356 347 344 321 290 297 263 289 274 252 204 191 184 181 186 193 194 194 190 192 194 196 198 201 204 204 203 201 197 194 193 192 191 189 188 188 191 191 184 175 149 7 348
319 241 179 17 336 340 323 329 326 319 314 305 279 276 280 217 205 197 193 189 190 192 196 199 195 196 198 199 200 201 205 206 206 206 203 200 198 197 195 195 198 202 206 208 204 210 257 327 335
356 271 15 304 321 328 312 309 319 313 302 356 328 338 296 237 214 206 205 205 200 197 201 200 203 201 202 204 204 201 206 208 209 209 208 206 202 200 200 201 204 210 214 220 225 245 274 309 321
201 281 292 313 319 315 313 306 295 284 276 290 291 308 313 273 234 221 216 210 209 206 207 207 203 209 206 208 209 207 207 209 212 211 210 209 208 206 206 208 211 215 216 219 231 253 282 302 311
227 215 227 292 300 293 286 281 290 279 285 292 292 295 281 272 259 238 228 222 218 218 213 214 209 213 210 214 212 212 211 213 216 215 214 212 212 213 212 213 216 222 222 227 238 256 281 294 302
271 276 273 260 255 268 284 291 247 292 335 318 327 318 312 288 273 253 238 229 228 226 224 222 217 216 217 218 216 214 216 217 218 218 218 217 216 216 217 219 222 229 233 235 238 259 274 289 295
296 294 296 299 331 316 316 263 219 337 11 344 338 338 346 337 295 267 260 249 237 233 231 229 224 221 222 220 221 219 220 220 221 221 220 220 220 220 222 224 227 230 233 237 244 255 272 282 285
315 268 324 36 12 27 350 282 343 311 336 321 321 322 322 323 329 319 275 257 247 236 236 236 232 229 226 223 222 223 222 224 226 224 224 223 224 225 225 227 230 233 233 224 243 258 270 279 276
37 3 340 328 341 333 346 304 302 317 323 312 318 320 321 322 326 322 317 295 256 245 241 240 238 234 231 227 226 227 227 226 229 224 228 228 228 227 229 231 232 235 228 242 249 254 262 267 269
335 335 316 309 332 340 315 301 317 311 304 315 338 336 345 348 347 340 323 306 287 258 245 244 246 243 239 231 229 229 228 229 229 226 229 230 230 228 230 231 232 237 228 240 246 252 258 258 260
320 311 317 326 339 337 313 310 308 301 10 29 13 5 4 0 344 341 331 313 293 281 254 245 249 248 237 231 225 225 227 229 228 228 229 231 230 228 228 226 231 231 228 237 241 246 251 253 253
50 21 351 312 324 324 320 318 318 66 50 36 23 14 8 1 360 355 351 345 318 286 272 255 247 253 247 238 234 231 228 227 228 228 229 230 231 230 229 230 229 228 225 232 239 243 246 244 241
55 26 339 307 317 292 335 312 27 58 45 31 25 18 14 9 2 358 356 353 345 325 281 257 253 247 247 245 239 228 229 228 226 224 224 226 228 229 229 230 229 223 228 233 240 245 246 242 240
325 351 320 303 320 315 8 297 43 359 21 18 12 9 7 6 4 2 1 2 355 342 318 281 253 245 243 241 233 238 235 232 227 224 224 223 227 229 229 226 234 219 228 234 237 242 243 240 239
323 312 286 294 295 317 19 264 1 30 1 0 2 3 1 359 359 358 357 355 358 358 344 315 273 243 242 242 237 244 243 241 234 227 225 224 225 227 234 225 229 219 225 235 235 238 239 239 238
330 310 309 171 199 232 56 339 51 16 355 351 358 360 359 354 353 355 357 360 360 4 360 344 309 262 234 244 243 242 248 237 238 233 228 228 224 227 232 233 220 222 226 230 235 236 236 238 237
1 4 349 21 344 324 297 333 45 33 22 15 4 360 0 357 356 355 358 1 1 3 2 359 342 306 246 246 247 244 250 245 247 241 235 235 229 224 227 227 219 219 224 226 231 229 232 234 234
340 349 28 313 312 303 312 259 100 63 24 15 10 0 359 358 2 1 359 1 3 1 2 359 354 337 296 247 255 250 250 243 247 247 241 239 239 233 220 225 220 215 222 222 223 225 224 227 228
348 34 334 275 243 269 242 136 192 31 17 9 4 358 359 356 359 356 0 3 4 6 1 3 358 352 326 282 263 257 253 248 245 249 244 241 238 226 227 222 218 213 219 219 220 221 219 221 223
33 355 208 29 296 286 265 290 262 15 8 2 358 355 347 349 349 351 352 358 1 1 4 0 2 359 350 316 290 270 256 253 250 249 248 243 235 228 226 217 213 214 211 215 217 212 212 214 215
20 32 19 296 269 282 300 266 135 343 354 353 346 344 338 342 346 350 350 355 355 358 359 2 359 359 358 347 312 286 269 260 253 248 244 244 240 226 223 213 210 210 209 212 215 213 210 209 212
324 42 43 309 297 266 277 275 283 310 327 327 326 331 332 332 340 343 349 352 357 359 358 358 360 355 359 357 340 305 283 268 256 250 243 242 233 232 220 215 210 204 201 214 208 215 207 207 208
Wind_Speed_850mb
10 5 7 6 7 6 9 7 8 13 7 2 4 10 11 7 10 2 9 37 49 65 65 64 58 53 51 47 44 39 36 34 30 24 18 12 10 9 9 12 14 15 15 21 19 20 20 20 21
7 3 9 4 9 15 12 9 19 17 9 8 10 13 11 14 9 3 23 44 50 65 64 66 61 53 52 49 44 40 36 35 31 25 18 14 12 12 14 20 23 26 26 26 25 22 19 18 18
3 11 6 6 8 20 11 9 8 9 11 8 7 9 6 3 11 6 21 46 58 63 62 63 62 55 52 49 45 41 38 35 30 23 18 16 15 16 23 25 27 28 30 30 28 25 20 16 15
8 4 2 10 26 14 13 9 4 19 10 10 7 12 7 13 4 13 28 47 59 62 59 62 61 57 53 50 47 44 41 36 30 23 18 15 16 21 26 27 26 26 25 25 24 22 21 20 17
9 3 8 12 27 13 13 18 19 21 15 11 7 10 8 11 14 22 35 46 59 59 56 63 61 56 53 50 49 46 42 36 31 24 19 17 18 22 26 26 25 23 22 21 20 19 16 15 13
4 4 7 20 27 10 12 16 21 24 31 26 10 20 10 12 15 30 38 47 53 62 60 66 62 56 53 52 50 46 43 39 33 26 21 19 20 24 25 24 22 21 20 20 18 17 16 14 12
2 5 4 9 14 14 8 14 12 18 26 29 14 10 6 14 21 32 40 48 52 64 67 66 62 56 54 52 51 48 43 41 36 28 23 20 23 25 24 22 19 18 17 16 15 14 13 11 9
4 2 5 7 7 8 10 19 11 14 15 16 8 10 9 13 28 34 41 47 52 66 69 68 60 59 57 55 52 50 46 42 38 30 26 24 25 26 24 23 20 18 16 14 13 13 9 6 8
5 8 7 6 4 5 13 22 20 18 15 16 11 11 10 11 33 38 44 46 47 61 69 70 61 60 58 57 58 53 48 44 40 33 31 30 29 29 27 25 23 21 19 16 14 11 3 6 13
3 7 6 2 10 15 30 21 29 20 30 20 17 20 21 15 37 46 54 56 55 57 63 70 59 59 61 59 60 56 53 50 47 41 37 36 33 32 31 29 26 23 19 17 14 10 5 11 19
7 6 4 10 20 25 33 36 14 18 22 13 15 20 21 20 35 46 54 55 55 52 64 70 64 68 60 67 65 61 59 56 54 47 43 40 38 36 35 33 29 25 22 20 16 12 11 17 22
8 10 9 14 16 24 24 32 28 32 45 36 29 32 28 26 36 45 47 47 54 54 59 71 64 72 64 69 70 68 66 63 58 55 49 45 42 40 38 35 31 28 28 26 20 17 19 24 26
14 10 6 17 40 37 28 31 32 51 48 44 38 42 35 31 35 42 40 39 46 59 60 67 74 75 73 66 73 72 70 68 64 57 53 49 46 43 40 38 35 32 31 30 25 23 25 28 28
2 6 15 18 30 26 20 27 4 26 29 31 28 30 25 27 29 33 44 43 50 55 65 66 75 81 78 76 74 75 75 70 68 62 57 53 49 46 44 43 39 35 32 33 29 26 27 30 30
5 9 12 8 5 8 13 19 11 9 23 36 34 33 37 32 28 36 38 52 48 50 56 69 73 81 83 78 77 77 76 73 71 67 61 57 52 50 48 44 42 37 33 37 34 29 29 30 28
7 1 4 13 23 7 16 26 11 12 49 53 46 41 45 43 42 34 38 43 48 51 61 61 71 79 82 81 82 79 79 77 72 67 63 60 57 55 51 48 44 39 32 30 30 30 30 32 27
16 7 19 18 32 17 16 33 25 54 53 60 50 52 49 54 48 46 42 45 52 55 60 67 69 72 81 84 84 82 79 77 73 68 67 64 60 57 53 49 45 40 37 34 35 33 32 31 28
17 8 13 21 20 32 33 32 33 53 49 51 49 43 44 44 43 41 40 35 41 50 54 62 71 71 74 75 81 80 81 78 75 74 73 65 63 58 56 52 50 46 43 46 41 36 33 31 28
9 14 21 21 15 33 22 34 38 54 40 49 50 55 56 52 52 44 37 30 31 37 50 66 73 77 79 80 87 90 88 84 76 74 75 70 67 61 58 55 56 56 53 46 41 37 35 33 29
14 13 18 23 34 26 30 34 27 49 46 51 57 62 65 65 62 59 53 43 30 31 37 55 73 85 83 87 90 90 83 86 75 75 80 77 70 72 65 63 62 57 54 48 43 39 37 36 32
12 22 24 23 31 23 26 8 20 21 49 54 62 59 63 67 69 70 67 61 48 34 36 41 58 76 88 89 90 95 92 94 85 86 88 81 79 79 71 69 63 59 52 48 42 39 38 37 34
16 30 30 31 24 14 19 9 16 28 36 51 62 67 71 73 70 74 80 75 65 54 40 41 51 63 76 89 100 100 103 101 97 88 86 82 85 83 78 71 75 60 57 50 45 40 39 38 37
10 41 31 33 23 15 14 7 18 29 39 50 62 69 70 69 71 70 76 76 72 68 56 44 41 50 66 82 100 104 104 105 98 92 93 94 92 84 81 70 79 62 57 55 46 43 42 41 39
38 23 7 5 5 6 4 12 24 18 28 39 57 66 68 72 68 67 68 75 79 78 71 54 39 42 50 72 90 100 105 104 104 98 97 100 96 89 75 77 74 67 63 55 49 45 43 41 39
36 20 8 4 3 7 2 14 7 15 24 30 38 52 59 61 68 72 76 88 89 85 82 72 57 41 40 54 77 89 101 105 105 103 98 94 96 98 84 87 73 72 68 57 54 49 45 43 40
18 12 6 9 9 21 26 12 9 13 28 35 40 47 57 64 66 72 72 79 90 85 79 77 69 56 37 43 57 72 85 94 102 103 99 98 96 93 84 94 80 75 70 63 55 53 47 44 40
9 8 9 7 6 8 8 8 15 15 31 50 59 60 60 63 69 68 76 88 89 94 79 73 72 61 46 37 41 55 72 87 97 97 97 95 95 96 88 85 85 75 70 62 59 54 46 44 40
11 13 1 3 8 10 10 22 16 22 34 39 52 55 55 57 59 65 69 74 87 91 92 74 66 62 52 40 30 38 63 75 83 90 93 92 96 99 94 90 88 75 69 65 61 56 49 45 39
7 7 7 5 6 7 11 8 5 4 23 38 51 51 48 51 55 57 62 69 73 84 93 92 77 67 57 46 35 35 47 61 71 80 86 88 87 98 96 99 91 78 67 63 55 54 48 43 38
7 4 5 4 4 9 13 18 20 19 53 67 48 50 46 45 46 51 55 64 77 85 89 94 93 74 61 54 43 32 37 48 60 68 76 82 78 89 90 88 80 79 65 56 57 54 48 42 38
Wind_Direction_850mb
329 310 160 142 233 256 250 241 290 248 261 231 170 211 234 308 199 358 187 174 173 175 175 174 176 176 175 175 173 174 172 168 163 159 154 153 156 159 157 145 139 139 135 130 134 126 127 132 141
334 151 152 173 235 248 247 251 249 285 294 315 227 249 251 224 224 258 160 170 178 176 175 176 179 178 177 177 177 178 176 172 166 163 162 159 155 155 144 131 124 117 114 119 123 127 131 140 147
7 163 207 222 227 240 261 212 312 337 323 236 253 248 257 238 216 211 182 172 170 176 176 178 178 180 178 179 179 180 179 175 170 170 168 164 159 149 138 132 126 119 113 112 114 117 121 134 147
119 125 120 242 237 238 242 280 331 311 323 204 291 257 261 228 207 208 182 177 172 175 176 181 179 182 181 181 181 182 181 178 177 178 174 170 160 150 142 136 127 121 118 117 116 115 111 107 112
135 133 220 238 256 268 270 291 296 293 306 295 255 269 273 254 232 190 180 182 174 174 176 181 182 186 183 183 184 185 184 183 184 184 182 178 169 157 148 140 134 130 125 121 118 113 110 108 104
87 127 222 240 250 275 289 295 288 276 284 270 258 257 263 263 212 187 182 182 176 179 178 183 186 187 186 187 189 190 190 187 189 190 188 182 174 164 158 150 145 140 134 130 123 116 108 99 92
114 194 224 281 288 293 305 331 295 322 298 276 257 258 254 237 204 183 181 180 180 183 184 184 186 188 190 192 194 194 194 191 192 193 191 186 181 175 171 163 159 153 148 143 140 131 116 97 74
121 181 187 225 279 294 10 345 330 320 326 300 239 252 252 215 201 185 180 181 186 189 189 189 187 190 192 195 198 199 199 197 197 195 193 191 188 186 181 178 175 172 170 167 162 148 125 68 12
160 209 210 257 214 26 356 347 344 321 290 297 263 289 274 252 204 191 184 181 186 193 194 194 190 192 194 196 198 201 204 204 203 201 197 194 193 192 191 189 188 188 191 191 184 175 149 7 348
319 241 179 17 336 340 323 329 326 319 314 305 279 276 280 217 205 197 193 189 190 192 196 199 195 196 198 199 200 201 205 206 206 206 203 200 198 197 195 195 198 202 206 208 204 210 257 327 335
356 271 15 304 321 328 312 309 319 313 302 356 328 338 296 237 214 206 205 205 200 197 201 200 203 201 202 204 204 201 206 208 209 209 208 206 202 200 200 201 204 210 214 220 225 245 274 309 321
201 281 292 313 319 315 313 306 295 284 276 290 291 308 313 273 234 221 216 210 209 206 207 207 203 209 206 208 209 207 207 209 212 211 210 209 208 206 206 208 211 215 216 219 231 253 282 302 311
227 215 227 292 300 293 286 281 290 279 285 292 292 295 281 272 259 238 228 222 218 218 213 214 209 213 210 214 212 212 211 213 216 215 214 212 212 213 212 213 216 222 222 227 238 256 281 294 302
271 276 273 260 255 268 284 291 247 292 335 318 327 318 312 288 273 253 238 229 228 226 224 222 217 216 217 218 216 214 216 217 218 218 218 217 216 216 217 219 222 229 233 235 238 259 274 289 295
296 294 296 299 331 316 316 263 219 337 11 344 338 338 346 337 295 267 260 249 237 233 231 229 224 221 222 220 221 219 220 220 221 221 220 220 220 220 222 224 227 230 233 237 244 255 272 282 285
315 268 324 36 12 27 350 282 343 311 336 321 321 322 322 323 329 319 275 257 247 236 236 236 232 229 226 223 222 223 222 224 226 224 224 223 224 225 225 227 230 233 233 224 243 258 270 279 276
37 3 340 328 341 333 346 304 302 317 323 312 318 320 321 322 326 322 317 295 256 245 241 240 238 234 231 227 226 227 227 226 229 224 228 228 228 227 229 231 232 235 228 242 249 254 262 267 269
335 335 316 309 332 340 315 301 317 311 304 315 338 336 345 348 347 340 323 306 287 258 245 244 246 243 239 231 229 229 228 229 229 226 229 230 230 228 230 231 232 237 228 240 246 252 258 258 260
320 311 317 326 339 337 313 310 308 301 10 29 13 5 4 0 344 341 331 313 293 281 254 245 249 248 237 231 225 225 227 229 228 228 229 231 230 228 228 226 231 231 228 237 241 246 251 253 253
50 21 351 312 324 324 320 318 318 66 50 36 23 14 8 1 360 355 351 345 318 286 272 255 247 253 247 238 234 231 228 227 228 228 229 230 231 230 229 230 229 228 225 232 239 243 246 244 241
55 26 339 307 317 292 335 312 27 58 45 31 25 18 14 9 2 358 356 353 345 325 281 257 253 247 247 245 239 228 229 228 226 224 224 226 228 229 229 230 229 223 228 233 240 245 246 242 240
325 351 320 303 320 315 8 297 43 359 21 18 12 9 7 6 4 2 1 2 355 342 318 281 253 245 243 241 233 238 235 232 227 224 224 223 227 229 229 226 234 219 228 234 237 242 243 240 239
323 312 286 294 295 317 19 264 1 30 1 0 2 3 1 359 359 358 357 355 358 358 344 315 273 243 242 242 237 244 243 241 234 227 225 224 225 227 234 225 229 219 225 235 235 238 239 239 238
330 310 309 171 199 232 56 339 51 16 355 351 358 360 359 354 353 355 357 360 360 4 360 344 309 262 234 244 243 242 248 237 238 233 228 228 224 227 232 233 220 222 226 230 235 236 236 238 237
1 4 349 21 344 324 297 333 45 33 22 15 4 360 0 357 356 355 358 1 1 3 2 359 342 306 246 246 247 244 250 245 247 241 235 235 229 224 227 227 219 219 224 226 231 229 232 234 234
340 349 28 313 312 303 312 259 100 63 24 15 10 0 359 358 2 1 359 1 3 1 2 359 354 337 296 247 255 250 250 243 247 247 241 239 239 233 220 225 220 215 222 222 223 225 224 227 228
348 34 334 275 243 269 242 136 192 31 17 9 4 358 359 356 359 356 0 3 4 6 1 3 358 352 326 282 263 257 253 248 245 249 244 241 238 226 227 222 218 213 219 219 220 221 219 221 223
33 355 208 29 296 286 265 290 262 15 8 2 358 355 347 349 349 351 352 358 1 1 4 0 2 359 350 316 290 270 256 253 250 249 248 243 235 228 226 217 213 214 211 215 217 212 212 214 215
20 32 19 296 269 282 300 266 135 343 354 353 346 344 338 342 346 350 350 355 355 358 359 2 359 359 358 347 312 286 269 260 253 248 244 244 240 226 223 213 210 210 209 212 215 213 210 209 212
324 42 43 309 297 266 277 275 283 310 327 327 326 331 332 332 340 343 349 352 357 359 358 358 360 355 359 357 340 305 283 268 256 250 243 242 233 232 220 215 210 204 201 214 208 215 207 207 208